Regional Weather Roundup
Issued by NWS

Home | Current Version | Previous Version | Text Only | Print | Product List | Glossary Off
Versions: 1 2 3 4 5 6 7 8 9 10 11 12 13 14 15 16 17 18 19 20 21 22 23 24 25 26 27 28 29 30 31 32 33 34 35 36 37 38 39 40 41 42 43 44 45 46 47 48 49 50

712
ASUS43 KMPX 091301
RWRMN
WEATHER ROUNDUP FOR MINNESOTA
NATIONAL WEATHER SERVICE TWIN CITIES/CHANHASSEN MN
700 AM CST TUE FEB 09 2016


NOTE: "FAIR" INDICATES FEW OR NO CLOUDS BELOW 12,000 FEET WITH NO
SIGNIFICANT WEATHER AND/OR OBSTRUCTIONS TO VISIBILITY. N/A MEANS
CURRENT SKY AND/OR WEATHER CONDITIONS ARE NOT AVAILABLE.

MNZ060>063-068>070-091400-
   Twin Cities Metro

CITY           SKY/WX    TMP DP  RH WIND       PRES   REMARKS
TWIN CITIES    PTCLDY     5  -2  72 NW14G25   30.09R WCI -12
ST PAUL        CLEAR      6  -3  66 NW18      30.10R WCI -13
CRYSTAL        CLEAR      6  -2  69 NW14      30.08R WCI -11
BLAINE         PTCLDY     7   0  72 NW15G21   30.07R WCI -11
LAKEVILLE      CLEAR      3  -2  78 NW15      30.07R WCI -15
EDEN PRAIRIE   CLEAR      6  -3  66 N12G23    30.08R WCI  -9
SOUTH ST PAUL  CLEAR      7  -2  67 N12G20    30.08R WCI  -9
LAKE ELMO      MOCLDY     7   0  72 NW9G18    30.07R WCI  -7
$$
MNZ001>005-007-008-013>017-022>024-027-028-091400-
   Northwest Minnesota

CITY           SKY/WX    TMP DP  RH WIND       PRES   REMARKS
BEMIDJI        CLOUDY    -6  -9  86 NW7       30.16R WCI -20
HALLOCK        CLOUDY     7   1  78 N13       30.28R WCI  -9
ROSEAU         CLOUDY    -6  -9  84 NW6       30.23S WCI -18
WARROAD        CLOUDY    -2  -8  78 NW6       30.21S WCI -14
CROOKSTON      PTCLDY     7   3  85 N17       30.27S WCI -12
FOSSTON        CLOUDY    -2  -6  84 N8        30.20S WCI -17
DETROIT LAKES  CLOUDY     0  -4  85 NW9       30.19S WCI -16
MOORHEAD       PTCLDY     7   1  78 N8        30.27R WCI  -6
PARK RAPIDS    CLEAR      0  -5  79 NW12      30.14R WCI -17
MAHNOMEN       CLOUDY    -3  -6  85 NW7       30.21R WCI -16
$$
MNZ006-009>011-018-025>026-091400-
   North Central Minnesota

CITY           SKY/WX    TMP DP  RH WIND       PRES   REMARKS
BAUDETTE       CLOUDY    -6 -11  79 NW8       30.18R WCI -21
FLAG ISLAND    CLOUDY    -4  -8  84 N8        30.20R WCI -19
INTL FALLS     CLOUDY    -6 -10  83 NW9       30.13S WCI -23
WASKISH        PTCLDY    -8 -11  84 W6        30.18R WCI -21
LONGVILLE      CLEAR     -2  -6  84 NW5       30.12R WCI -12
GRAND RAPIDS   MOCLDY    -2  -9  71 NW16      30.06R WCI -23
CRANE LAKE     CLOUDY     0  -4  85 NW10      30.10R WCI -17
ORR            CLOUDY     0  -8  71 NW7       30.04R WCI -13
COOK           CLOUDY     0  -4  85 NW9       30.06R WCI -16
WALKER         FAIR      -2  -6  82 NW10      30.13R WCI -19
$$
MNZ012-019>021-037-091400-
   Northeast Minnesota

CITY           SKY/WX    TMP DP  RH WIND       PRES   REMARKS
DULUTH         PTCLDY    -2  -7  79 N9        29.99R WCI -18
ELY            CLOUDY     0  -6  78 N8        30.00S WCI -15
HIBBING        CLOUDY    -1  -5  82 NW15      30.04R WCI -21
EVELETH        CLOUDY     3  -4  72 NW10      30.03R WCI -12
DULUTH HARBOR  CLOUDY     5  -2  72 NW10G21   30.09R WCI -10
TWO HARBORS    CLOUDY     3  -6  66 NW6       29.98R WCI  -8
SILVER BAY     CLOUDY     1  -6  71 N3        29.97R
GRAND MARAIS     N/A      5  -5  63 VRB3      29.99R
G MARAIS ARPRT CLOUDY    -2  -8  78 NW16G29   29.85R WCI -23
$$
MNZ029>031-032-039>041-046>048-054>057-064-091400-
   West Central Minnesota

CITY           SKY/WX    TMP DP  RH WIND       PRES   REMARKS
FERGUS FALLS   MOCLDY     1  -2  85 N10       30.26R WCI -14
WHEATON        MOCLDY     5   1  85 W9        30.28R WCI  -9
MORRIS         CLEAR      3   0  85 NW16      30.19R WCI -16
ALEXANDRIA     CLEAR      2  -3  80 NW14      30.14R WCI -16
ELBOW LAKE     FAIR       2  -2  83 W13       30.21R WCI -15
WADENA         CLEAR      0  -4  85 NW8       30.15R WCI -15
GLENWOOD       CLEAR      1  -2  85 NW15G21   30.15R WCI -18
APPLETON       CLEAR      5   0  78 NW13      30.23R WCI -12
BENSON         CLEAR      3  -2  78 N12       30.19R WCI -13
ORTONVILLE     CLEAR      3  -2  78 NW13      30.23R WCI -14
MADISON        CLEAR      7   0  72 NW14      30.24R WCI -10
WILLMAR        FAIR       5   0  78 NW14      30.17R WCI -12
$$
MNZ033>034-036-042>043-049>051-058-059-091400-
   Central Minnesota

CITY           SKY/WX    TMP DP  RH WIND       PRES   REMARKS
ST CLOUD       CLEAR      3  -4  72 NW15G23   30.10R WCI -16
SAUK CENTRE    FAIR       1  -4  80 NW10      30.15R WCI -15
PAYNESVILLE    PTCLDY     3  -3  79 NW9       30.15R WCI -12
AITKIN         CLEAR      1  -6  71 NW8       30.07S WCI -12
PINE RIVER     CLEAR      0  -4  85 NW10      30.15R WCI -17
BRAINERD       CLEAR      1  -5  75 N15       30.11R WCI -18
STAPLES        CLEAR      0  -4  85 N12       30.13R WCI -18
LONG PRAIRIE   MOCLDY     1  -4  78 NW12      30.12S WCI -15
LITTLE FALLS   CLEAR      3  -4  72 NW7G16    30.13R WCI  -9
LITCHFIELD     CLEAR      5   0  78 NW17      30.11S WCI -14
BUFFALO        CLEAR      5  -2  72 NW12G17   30.11S WCI -11
MAPLE LAKE     CLEAR      6   0  78 NW12      30.11S WCI -10
$$
MNZ037-044-045-052-053-091400-
   East Central Minnesota

CITY           SKY/WX    TMP DP  RH WIND       PRES   REMARKS
PRINCETON      CLEAR      5  -2  72 NW9       30.09R WCI  -9
MORA           CLEAR      5  -2  72 NW12G18   30.09R WCI -11
CAMBRIDGE      CLEAR      5  -4  66 NW8       30.07R WCI  -8
RUSH CITY      MOCLDY     3  -4  75 NW7       30.08R WCI -10
MOOSE LAKE     PTCLDY     0  -6  78 N5        30.05R WCI -10
HINCKLEY       FAIR       3  -4  72 N6        30.07R WCI  -8
CLOQUET        PTCLDY    -2  -8  78 NW9       30.02R WCI -18
MCGREGOR       CLEAR      1  -4  78 NW12      30.07R WCI -15
$$
MNZ071>073-080-081-089-090-097-098-091400-
   Southwest Minnesota

CITY           SKY/WX    TMP DP  RH WIND       PRES   REMARKS
MONTEVIDEO     CLEAR      3   0  85 N15G21    30.22R WCI -15
GRANITE FALLS  CLEAR      7   1  78 NW15      30.21R WCI -11
CANBY          PTCLDY     8   3  82 W10       30.24R WCI  -7
MARSHALL       CLEAR      5  -1  76 NW18      30.20R WCI -15
REDWOOD FALLS  CLEAR      5  -1  76 NW14G21   30.16R WCI -12
OLIVIA         CLEAR      7   1  78 NW14G22   30.15R WCI -10
PIPESTONE      CLEAR      7  -6  56 N13G23    30.14S WCI  -9
WINDOM         CLEAR      3   0  85 NW23      30.11R WCI -19
WORTHINGTON    PTCLDY     3  -2  78 N23       30.12S WCI -19
JACKSON        CLOUDY     5   0  78 NW24G35   30.10R HAZE    WCI -17
TRACY          CLEAR      6   1  79 N17G24    30.16R WCI -13
SLAYTON        CLEAR      4   0  85 NW18G26   30.13S WCI -16
$$
MNZ065>067-074>077-082>085-091>093-091400-
   South Central Minnesota

CITY           SKY/WX    TMP DP  RH WIND       PRES   REMARKS
MANKATO        CLEAR      7  -2  66 NW15G24   30.09R WCI -11
NEW ULM        CLEAR      5   0  78 NW16      30.11S WCI -14
ST JAMES       CLEAR      5   1  85 NW18      30.13R WCI -15
FAIRMONT       PTCLDY     5  -2  72 NW20      30.08R WCI -15
GLENCOE        CLEAR      7   1  78 NW13      30.10S WCI -10
FARIBAULT      CLEAR      5  -2  72 NW13G20   30.06R WCI -12
OWATONNA       CLEAR      5  -2  72 NW18      30.04R WCI -15
WASECA         CLEAR      5   0  78 NW18      30.08R WCI -15
ALBERT LEA     CLOUDY     7   1  78 NW12G17   30.03R WCI  -9
$$
MNZ078>079-086>088-094>096-091400-
   Southeast Minnesota

CITY           SKY/WX    TMP DP  RH WIND       PRES   REMARKS
ROCHESTER      PTCLDY     4  -2  76 N17       29.98R WCI -16
RED WING       CLOUDY     7  -2  66 N9        30.05R WCI  -7
STANTON        CLEAR      7  -1  69 NW13      30.04S WCI  -9
DODGE CENTER   MOCLDY     3   0  85 N15       29.99R WCI -15
WINONA         MOCLDY    10   3  72 NW12G18   30.02R WCI  -4
AUSTIN         CLOUDY     7   1  78 NW18      30.00R WCI -12
PRESTON        CLOUDY     5   0  77 N12G20    29.96R HAZE    WCI -11
$$
ABBREVIATIONS USED IN REMARKS
   TC - TEMPERATURES IN CELSIUS
  WCI - WIND CHILL INDEX
   HX - HEAT INDEX
  VSB - VISIBILITY
$$




USA.gov is the U.S. government's official web portal to all federal, state and local government web resources and services.